Year,Month,Day,Hour,Minute,Value (Times are PST for temperature in C)
2015,06,22,00,00,17.20
2015,06,22,00,01,17.20
2015,06,22,00,02,17.20
2015,06,22,00,03,17.20
2015,06,22,00,04,17.10
2015,06,22,00,05,17.10
2015,06,22,00,06,17.10
2015,06,22,00,07,17.10
2015,06,22,00,08,17.20
2015,06,22,00,09,17.20
2015,06,22,00,10,17.20
2015,06,22,00,11,17.20
2015,06,22,00,12,17.10
2015,06,22,00,13,17.10
2015,06,22,00,14,17.10
2015,06,22,00,15,17.10
2015,06,22,00,16,17.10
2015,06,22,00,17,17.10
2015,06,22,00,18,17.10
2015,06,22,00,19,17.10
2015,06,22,00,20,17.10
2015,06,22,00,21,17.10
2015,06,22,00,22,17.10
2015,06,22,00,23,17.10
2015,06,22,00,24,17.10
2015,06,22,00,25,17.10
2015,06,22,00,26,17.10
2015,06,22,00,27,17.10
2015,06,22,00,28,17.10
2015,06,22,00,29,17.10
2015,06,22,00,30,17.10
2015,06,22,00,31,17.10
2015,06,22,00,32,17.00
2015,06,22,00,33,17.00
2015,06,22,00,34,17.00
2015,06,22,00,35,17.00
2015,06,22,00,36,17.00
2015,06,22,00,37,17.00
2015,06,22,00,38,17.00
2015,06,22,00,39,17.00
2015,06,22,00,40,16.90
2015,06,22,00,41,16.90
2015,06,22,00,42,16.90
2015,06,22,00,43,16.90
2015,06,22,00,44,16.90
2015,06,22,00,45,16.80
2015,06,22,00,46,16.80
2015,06,22,00,47,16.80
2015,06,22,00,48,16.70
2015,06,22,00,49,16.70
2015,06,22,00,50,16.60
2015,06,22,00,51,16.60
2015,06,22,00,52,16.60
2015,06,22,00,53,16.60
2015,06,22,00,54,16.60
2015,06,22,00,55,16.60
2015,06,22,00,56,16.60
2015,06,22,00,57,16.50
2015,06,22,00,58,16.50
2015,06,22,00,59,16.50
2015,06,22,01,00,16.40
2015,06,22,01,01,16.40
2015,06,22,01,02,16.40
2015,06,22,01,03,16.40
2015,06,22,01,04,16.40
2015,06,22,01,05,16.40
2015,06,22,01,06,16.40
2015,06,22,01,07,16.40
2015,06,22,01,08,16.40
2015,06,22,01,09,16.40
2015,06,22,01,10,16.40
2015,06,22,01,11,16.40
2015,06,22,01,12,16.50
2015,06,22,01,13,16.50
2015,06,22,01,14,16.50
2015,06,22,01,15,16.50
2015,06,22,01,16,16.50
2015,06,22,01,17,16.60
2015,06,22,01,18,16.60
2015,06,22,01,19,16.60
2015,06,22,01,20,16.60
2015,06,22,01,21,16.60
2015,06,22,01,22,16.60
2015,06,22,01,23,16.50
2015,06,22,01,24,16.50
2015,06,22,01,25,16.50
2015,06,22,01,26,16.50
2015,06,22,01,27,16.40
2015,06,22,01,28,16.50
2015,06,22,01,29,16.50
2015,06,22,01,30,16.50
2015,06,22,01,31,16.60
2015,06,22,01,32,16.60
2015,06,22,01,33,16.60
2015,06,22,01,34,16.60
2015,06,22,01,35,16.60
2015,06,22,01,36,16.60
2015,06,22,01,37,16.60
2015,06,22,01,38,16.60
2015,06,22,01,39,16.60
2015,06,22,01,40,16.50
2015,06,22,01,41,16.50
2015,06,22,01,42,16.40
2015,06,22,01,43,16.40
2015,06,22,01,44,16.40
2015,06,22,01,45,16.40
2015,06,22,01,46,16.40
2015,06,22,01,47,16.30
2015,06,22,01,48,16.30
2015,06,22,01,49,16.30
2015,06,22,01,50,16.30
2015,06,22,01,51,16.30
2015,06,22,01,52,16.30
2015,06,22,01,53,16.30
2015,06,22,01,54,16.30
2015,06,22,01,55,16.40
2015,06,22,01,56,16.40
2015,06,22,01,57,16.40
2015,06,22,01,58,16.40
2015,06,22,01,59,16.40
2015,06,22,02,00,16.40
2015,06,22,02,01,16.50
2015,06,22,02,02,16.50
2015,06,22,02,03,16.60
2015,06,22,02,04,16.60
2015,06,22,02,05,16.70
2015,06,22,02,06,16.70
2015,06,22,02,07,16.70
2015,06,22,02,08,16.80
2015,06,22,02,09,16.80
2015,06,22,02,10,16.80
2015,06,22,02,11,16.80
2015,06,22,02,12,16.80
2015,06,22,02,13,16.80
2015,06,22,02,14,16.80
2015,06,22,02,15,16.80
2015,06,22,02,16,16.80
2015,06,22,02,17,16.80
2015,06,22,02,18,16.80
2015,06,22,02,19,16.80
2015,06,22,02,20,16.80
2015,06,22,02,21,16.80
2015,06,22,02,22,16.80
2015,06,22,02,23,16.80
2015,06,22,02,24,16.80
2015,06,22,02,25,16.80
2015,06,22,02,26,16.70
2015,06,22,02,27,16.70
2015,06,22,02,28,16.70
2015,06,22,02,29,16.70
2015,06,22,02,30,16.70
2015,06,22,02,31,16.70
2015,06,22,02,32,16.70
2015,06,22,02,33,16.70
2015,06,22,02,34,16.60
2015,06,22,02,35,16.50
2015,06,22,02,36,16.40
2015,06,22,02,37,16.20
2015,06,22,02,38,15.90
2015,06,22,02,39,15.70
2015,06,22,02,40,15.50
2015,06,22,02,41,15.40
2015,06,22,02,42,15.20
2015,06,22,02,43,15.10
2015,06,22,02,44,15.10
2015,06,22,02,45,15.00
2015,06,22,02,46,14.90
2015,06,22,02,47,14.80
2015,06,22,02,48,14.70
2015,06,22,02,49,14.60
2015,06,22,02,50,14.60
2015,06,22,02,51,14.50
2015,06,22,02,52,14.50
2015,06,22,02,53,14.40
2015,06,22,02,54,14.40
2015,06,22,02,55,14.40
2015,06,22,02,56,14.30
2015,06,22,02,57,14.30
2015,06,22,02,58,14.30
2015,06,22,02,59,14.20
2015,06,22,03,00,14.20
2015,06,22,03,01,14.30
2015,06,22,03,02,14.40
2015,06,22,03,03,14.50
2015,06,22,03,04,14.50
2015,06,22,03,05,14.60
2015,06,22,03,06,14.70
2015,06,22,03,07,14.80
2015,06,22,03,08,14.80
2015,06,22,03,09,14.90
2015,06,22,03,10,14.90
2015,06,22,03,11,14.90
2015,06,22,03,12,15.00
2015,06,22,03,13,15.00
2015,06,22,03,14,15.00
2015,06,22,03,15,15.00
2015,06,22,03,16,15.00
2015,06,22,03,17,14.90
2015,06,22,03,18,14.90
2015,06,22,03,19,14.90
2015,06,22,03,20,14.90
2015,06,22,03,21,14.90
2015,06,22,03,22,14.90
2015,06,22,03,23,14.80
2015,06,22,03,24,14.80
2015,06,22,03,25,14.80
2015,06,22,03,26,14.80
2015,06,22,03,27,14.80
2015,06,22,03,28,14.70
2015,06,22,03,29,14.70
2015,06,22,03,30,14.70
2015,06,22,03,31,14.70
2015,06,22,03,32,14.70
2015,06,22,03,33,14.70
2015,06,22,03,34,14.60
2015,06,22,03,35,14.60
2015,06,22,03,36,14.60
2015,06,22,03,37,14.60
2015,06,22,03,38,14.60
2015,06,22,03,39,14.50
2015,06,22,03,40,14.50
2015,06,22,03,41,14.50
2015,06,22,03,42,14.50
2015,06,22,03,43,14.50
2015,06,22,03,44,14.50
2015,06,22,03,45,14.50
2015,06,22,03,46,14.60
2015,06,22,03,47,14.60
2015,06,22,03,48,14.60
2015,06,22,03,49,14.60
2015,06,22,03,50,14.70
2015,06,22,03,51,14.70
2015,06,22,03,52,14.70
2015,06,22,03,53,14.70
2015,06,22,03,54,14.80
2015,06,22,03,55,14.80
2015,06,22,03,56,14.90
2015,06,22,03,57,14.90
2015,06,22,03,58,14.90
2015,06,22,03,59,15.00
2015,06,22,04,00,15.00
2015,06,22,04,01,15.10
2015,06,22,04,02,15.10
2015,06,22,04,03,15.10
2015,06,22,04,04,15.20
2015,06,22,04,05,15.20
2015,06,22,04,06,15.20
2015,06,22,04,07,15.30
2015,06,22,04,08,15.30
2015,06,22,04,09,15.30
2015,06,22,04,10,15.30
2015,06,22,04,11,15.30
2015,06,22,04,12,15.30
2015,06,22,04,13,15.30
2015,06,22,04,14,15.30
2015,06,22,04,15,15.30
2015,06,22,04,16,15.30
2015,06,22,04,17,15.40
2015,06,22,04,18,15.40
2015,06,22,04,19,15.40
2015,06,22,04,20,15.40
2015,06,22,04,21,15.40
2015,06,22,04,22,15.30
2015,06,22,04,23,15.30
2015,06,22,04,24,15.30
2015,06,22,04,25,15.30
2015,06,22,04,26,15.20
2015,06,22,04,27,15.20
2015,06,22,04,28,15.20
2015,06,22,04,29,15.10
2015,06,22,04,30,15.10
2015,06,22,04,31,15.00
2015,06,22,04,32,15.00
2015,06,22,04,33,14.90
2015,06,22,04,34,14.90
2015,06,22,04,35,14.90
2015,06,22,04,36,14.80
2015,06,22,04,37,14.80
2015,06,22,04,38,14.80
2015,06,22,04,39,14.80
2015,06,22,04,40,14.80
2015,06,22,04,41,14.80
2015,06,22,04,42,14.80
2015,06,22,04,43,14.80
2015,06,22,04,44,14.80
2015,06,22,04,45,14.80
2015,06,22,04,46,14.80
2015,06,22,04,47,14.90
2015,06,22,04,48,14.90
2015,06,22,04,49,14.90
2015,06,22,04,50,14.90
2015,06,22,04,51,14.90
2015,06,22,04,52,14.90
2015,06,22,04,53,14.90
2015,06,22,04,54,14.90
2015,06,22,04,55,14.90
2015,06,22,04,56,14.90
2015,06,22,04,57,14.90
2015,06,22,04,58,14.90
2015,06,22,04,59,14.80
2015,06,22,05,00,14.80
2015,06,22,05,01,14.70
2015,06,22,05,02,14.70
2015,06,22,05,03,14.60
2015,06,22,05,04,14.60
2015,06,22,05,05,14.50
2015,06,22,05,06,14.50
2015,06,22,05,07,14.50
2015,06,22,05,08,14.50
2015,06,22,05,09,14.50
2015,06,22,05,10,14.50
2015,06,22,05,11,14.40
2015,06,22,05,12,14.40
2015,06,22,05,13,14.40
2015,06,22,05,14,14.40
2015,06,22,05,15,14.40
2015,06,22,05,16,14.30
2015,06,22,05,17,14.30
2015,06,22,05,18,14.30
2015,06,22,05,19,14.30
2015,06,22,05,20,14.30
2015,06,22,05,21,14.30
2015,06,22,05,22,14.30
2015,06,22,05,23,14.40
2015,06,22,05,24,14.40
2015,06,22,05,25,14.40
2015,06,22,05,26,14.40
2015,06,22,05,27,14.40
2015,06,22,05,28,14.40
2015,06,22,05,29,14.40
2015,06,22,05,30,14.40
2015,06,22,05,31,14.40
2015,06,22,05,32,14.40
2015,06,22,05,33,14.50
2015,06,22,05,34,14.50
2015,06,22,05,35,14.60
2015,06,22,05,36,14.60
2015,06,22,05,37,14.70
2015,06,22,05,38,14.70
2015,06,22,05,39,14.70
2015,06,22,05,40,14.70
2015,06,22,05,41,14.70
2015,06,22,05,42,14.70
2015,06,22,05,43,14.70
2015,06,22,05,44,14.70
2015,06,22,05,45,14.60
2015,06,22,05,46,14.60
2015,06,22,05,47,14.50
2015,06,22,05,48,14.50
2015,06,22,05,49,14.40
2015,06,22,05,50,14.30
2015,06,22,05,51,14.30
2015,06,22,05,52,14.20
2015,06,22,05,53,14.10
2015,06,22,05,54,14.10
2015,06,22,05,55,14.00
2015,06,22,05,56,14.00
2015,06,22,05,57,13.90
2015,06,22,05,58,13.90
2015,06,22,05,59,13.90
2015,06,22,06,00,13.90
2015,06,22,06,01,13.80
2015,06,22,06,02,13.80
2015,06,22,06,03,13.80
2015,06,22,06,04,13.80
2015,06,22,06,05,13.80
2015,06,22,06,06,13.80
2015,06,22,06,07,13.80
2015,06,22,06,08,13.80
2015,06,22,06,09,13.80
2015,06,22,06,10,13.80
2015,06,22,06,11,13.80
2015,06,22,06,12,13.80
2015,06,22,06,13,13.80
2015,06,22,06,14,13.80
2015,06,22,06,15,13.80
2015,06,22,06,16,13.80
2015,06,22,06,17,13.80
2015,06,22,06,18,13.80
2015,06,22,06,19,13.80
2015,06,22,06,20,13.80
2015,06,22,06,21,13.80
2015,06,22,06,22,13.80
2015,06,22,06,23,13.80
2015,06,22,06,24,13.80
2015,06,22,06,25,13.80
2015,06,22,06,26,13.80
2015,06,22,06,27,13.80
2015,06,22,06,28,13.80
2015,06,22,06,29,13.80
2015,06,22,06,30,13.80
2015,06,22,06,31,13.90
2015,06,22,06,32,13.90
2015,06,22,06,33,13.90
2015,06,22,06,34,13.90
2015,06,22,06,35,13.90
2015,06,22,06,36,13.90
2015,06,22,06,37,14.00
2015,06,22,06,38,14.00
2015,06,22,06,39,14.00
2015,06,22,06,40,14.00
2015,06,22,06,41,14.00
2015,06,22,06,42,14.00
2015,06,22,06,43,14.10
2015,06,22,06,44,14.10
2015,06,22,06,45,14.10
2015,06,22,06,46,14.10
2015,06,22,06,47,14.10
2015,06,22,06,48,14.10
2015,06,22,06,49,14.10
2015,06,22,06,50,14.20
2015,06,22,06,51,14.20
2015,06,22,06,52,14.20
2015,06,22,06,53,14.20
2015,06,22,06,54,14.20
2015,06,22,06,55,14.20
2015,06,22,06,56,14.20
2015,06,22,06,57,14.20
2015,06,22,06,58,14.20
2015,06,22,06,59,14.30
2015,06,22,07,00,14.30
2015,06,22,07,01,14.30
2015,06,22,07,02,14.30
2015,06,22,07,03,14.30
2015,06,22,07,04,14.30
2015,06,22,07,05,14.30
2015,06,22,07,06,14.30
2015,06,22,07,07,14.30
2015,06,22,07,08,14.40
2015,06,22,07,09,14.40
2015,06,22,07,10,14.50
2015,06,22,07,11,14.50
2015,06,22,07,12,14.60
2015,06,22,07,13,14.60
2015,06,22,07,14,14.60
2015,06,22,07,15,14.60
2015,06,22,07,16,14.60
2015,06,22,07,17,14.60
2015,06,22,07,18,14.80
2015,06,22,07,19,14.80
2015,06,22,07,20,14.80
2015,06,22,07,21,14.90
2015,06,22,07,22,14.90
2015,06,22,07,23,15.00
2015,06,22,07,24,15.00
2015,06,22,07,25,15.10
2015,06,22,07,26,15.10
2015,06,22,07,27,15.10
2015,06,22,07,28,15.20
2015,06,22,07,29,15.20
2015,06,22,07,30,15.30
2015,06,22,07,31,15.30
2015,06,22,07,32,15.30
2015,06,22,07,33,15.30
2015,06,22,07,34,15.30
2015,06,22,07,35,15.30
2015,06,22,07,36,15.30
2015,06,22,07,37,15.30
2015,06,22,07,38,15.30
2015,06,22,07,39,15.40
2015,06,22,07,40,15.40
2015,06,22,07,41,15.40
2015,06,22,07,42,15.40
2015,06,22,07,43,15.40
2015,06,22,07,44,15.50
2015,06,22,07,45,15.50
2015,06,22,07,46,15.50
2015,06,22,07,47,15.50
2015,06,22,07,48,15.50
2015,06,22,07,49,15.50
2015,06,22,07,50,15.50
2015,06,22,07,51,15.50
2015,06,22,07,52,15.60
2015,06,22,07,53,15.60
2015,06,22,07,54,15.60
2015,06,22,07,55,15.70
2015,06,22,07,56,15.70
2015,06,22,07,57,15.70
2015,06,22,07,58,15.70
2015,06,22,07,59,15.70
2015,06,22,08,00,15.80
2015,06,22,08,01,15.80
2015,06,22,08,02,15.80
2015,06,22,08,03,15.80
2015,06,22,08,04,15.70
2015,06,22,08,05,15.70
2015,06,22,08,06,15.80
2015,06,22,08,07,15.80
2015,06,22,08,08,15.80
2015,06,22,08,09,15.80
2015,06,22,08,10,15.80
2015,06,22,08,11,15.90
2015,06,22,08,12,15.90
2015,06,22,08,13,15.90
2015,06,22,08,14,16.00
2015,06,22,08,15,16.00
2015,06,22,08,16,16.10
2015,06,22,08,17,16.10
2015,06,22,08,18,16.20
2015,06,22,08,19,16.20
2015,06,22,08,20,16.30
2015,06,22,08,21,16.30
2015,06,22,08,22,16.30
2015,06,22,08,23,16.40
2015,06,22,08,24,16.40
2015,06,22,08,25,16.40
2015,06,22,08,26,16.50
2015,06,22,08,27,16.50
2015,06,22,08,28,16.60
2015,06,22,08,29,16.60
2015,06,22,08,30,16.60
2015,06,22,08,31,16.60
2015,06,22,08,32,16.50
2015,06,22,08,33,16.50
2015,06,22,08,34,16.50
2015,06,22,08,35,16.50
2015,06,22,08,36,16.50
2015,06,22,08,37,16.60
2015,06,22,08,38,16.50
2015,06,22,08,39,16.50
2015,06,22,08,40,16.50
2015,06,22,08,41,16.50
2015,06,22,08,42,16.50
2015,06,22,08,43,16.50
2015,06,22,08,44,16.60
2015,06,22,08,45,16.60
2015,06,22,08,46,16.60
2015,06,22,08,47,16.60
2015,06,22,08,48,16.60
2015,06,22,08,49,16.60
2015,06,22,08,50,16.60
2015,06,22,08,51,16.60
2015,06,22,08,52,16.60
2015,06,22,08,53,16.60
2015,06,22,08,54,16.60
2015,06,22,08,55,16.60
2015,06,22,08,56,16.60
2015,06,22,08,57,16.70
2015,06,22,08,58,16.70
2015,06,22,08,59,16.80
2015,06,22,09,00,16.80
2015,06,22,09,01,16.90
2015,06,22,09,02,16.90
2015,06,22,09,03,16.90
2015,06,22,09,04,16.90
2015,06,22,09,05,17.00
2015,06,22,09,06,17.10
2015,06,22,09,07,17.10
2015,06,22,09,08,17.20
2015,06,22,09,09,17.20
2015,06,22,09,10,17.30
2015,06,22,09,11,17.30
2015,06,22,09,12,17.40
2015,06,22,09,13,17.40
2015,06,22,09,14,17.40
2015,06,22,09,15,17.50
2015,06,22,09,16,17.50
2015,06,22,09,17,17.50
2015,06,22,09,18,17.50
2015,06,22,09,19,17.50
2015,06,22,09,20,17.60
2015,06,22,09,21,17.60
2015,06,22,09,22,17.60
2015,06,22,09,23,17.50
2015,06,22,09,24,17.50
2015,06,22,09,25,17.50
2015,06,22,09,26,17.60
2015,06,22,09,27,17.60
2015,06,22,09,28,17.60
2015,06,22,09,29,17.70
2015,06,22,09,30,17.70
2015,06,22,09,31,17.80
2015,06,22,09,32,17.80
2015,06,22,09,33,17.80
2015,06,22,09,34,17.80
2015,06,22,09,35,17.80
2015,06,22,09,36,17.80
2015,06,22,09,37,17.80
2015,06,22,09,38,17.90
2015,06,22,09,39,17.90
2015,06,22,09,40,17.90
2015,06,22,09,41,17.90
2015,06,22,09,42,17.90
2015,06,22,09,43,17.90
2015,06,22,09,44,17.90
2015,06,22,09,45,18.00
2015,06,22,09,46,18.00
2015,06,22,09,47,18.00
2015,06,22,09,48,18.10
2015,06,22,09,49,18.00
2015,06,22,09,50,18.00
2015,06,22,09,51,18.00
2015,06,22,09,52,18.00
2015,06,22,09,53,18.00
2015,06,22,09,54,18.00
2015,06,22,09,55,18.00
2015,06,22,09,56,18.10
2015,06,22,09,57,18.00
2015,06,22,09,58,18.00
2015,06,22,09,59,18.10
2015,06,22,10,00,18.10
2015,06,22,10,01,18.10
2015,06,22,10,02,18.10
2015,06,22,10,03,18.10
2015,06,22,10,04,18.20
2015,06,22,10,05,18.20
2015,06,22,10,06,18.20
2015,06,22,10,07,18.20
2015,06,22,10,08,18.20
2015,06,22,10,09,18.20
2015,06,22,10,10,18.20
2015,06,22,10,11,18.20
2015,06,22,10,12,18.10
2015,06,22,10,13,18.10
2015,06,22,10,14,18.10
2015,06,22,10,15,18.10
2015,06,22,10,16,18.10
2015,06,22,10,17,18.00
2015,06,22,10,18,17.90
2015,06,22,10,19,17.90
2015,06,22,10,20,17.80
2015,06,22,10,21,17.80
2015,06,22,10,22,17.80
2015,06,22,10,23,17.80
2015,06,22,10,24,17.90
2015,06,22,10,25,17.90
2015,06,22,10,26,18.00
2015,06,22,10,27,18.00
2015,06,22,10,28,18.00
2015,06,22,10,29,18.00
2015,06,22,10,30,18.00
2015,06,22,10,31,18.00
2015,06,22,10,32,18.00
2015,06,22,10,33,18.00
2015,06,22,10,34,18.00
2015,06,22,10,35,17.90
2015,06,22,10,36,17.90
2015,06,22,10,37,17.90
2015,06,22,10,38,18.00
2015,06,22,10,39,18.10
2015,06,22,10,40,18.20
2015,06,22,10,41,18.30
2015,06,22,10,42,18.30
2015,06,22,10,43,18.40
2015,06,22,10,44,18.40
2015,06,22,10,45,18.40
2015,06,22,10,46,18.40
2015,06,22,10,47,18.40
2015,06,22,10,48,18.40
2015,06,22,10,49,18.40
2015,06,22,10,50,18.40
2015,06,22,10,51,18.40
2015,06,22,10,52,18.30
2015,06,22,10,53,18.30
2015,06,22,10,54,18.30
2015,06,22,10,55,18.40
2015,06,22,10,56,18.30
2015,06,22,10,57,18.40
2015,06,22,10,58,18.40
2015,06,22,10,59,18.40
2015,06,22,11,00,18.40
2015,06,22,11,01,18.50
2015,06,22,11,02,18.50
2015,06,22,11,03,18.60
2015,06,22,11,04,18.60
2015,06,22,11,05,18.70
2015,06,22,11,06,18.70
2015,06,22,11,07,18.70
2015,06,22,11,08,18.70
2015,06,22,11,09,18.70
2015,06,22,11,10,18.70
2015,06,22,11,11,18.70
2015,06,22,11,12,18.80
2015,06,22,11,13,18.80
2015,06,22,11,14,18.90
2015,06,22,11,15,18.90
2015,06,22,11,16,18.90
2015,06,22,11,17,18.80
2015,06,22,11,18,18.80
2015,06,22,11,19,18.80
2015,06,22,11,20,18.80
2015,06,22,11,21,18.80
2015,06,22,11,22,18.80
2015,06,22,11,23,18.90
2015,06,22,11,24,18.90
2015,06,22,11,25,18.90
2015,06,22,11,26,18.90
2015,06,22,11,27,18.90
2015,06,22,11,28,18.90
2015,06,22,11,29,19.00
2015,06,22,11,30,19.00
2015,06,22,11,31,19.00
2015,06,22,11,32,19.00
2015,06,22,11,33,19.00
2015,06,22,11,34,18.80
2015,06,22,11,35,18.80
2015,06,22,11,36,18.80
2015,06,22,11,37,18.90
2015,06,22,11,38,18.80
2015,06,22,11,39,18.80
2015,06,22,11,40,18.90
2015,06,22,11,41,18.90
2015,06,22,11,42,18.90
2015,06,22,11,43,18.90
2015,06,22,11,44,18.90
2015,06,22,11,45,18.80
2015,06,22,11,46,18.80
2015,06,22,11,47,18.80
2015,06,22,11,48,18.80
2015,06,22,11,49,18.80
2015,06,22,11,50,18.80
2015,06,22,11,51,18.80
2015,06,22,11,52,18.80
2015,06,22,11,53,18.80
2015,06,22,11,54,18.80
2015,06,22,11,55,18.80
2015,06,22,11,56,18.80
2015,06,22,11,57,18.80
2015,06,22,11,58,18.80
2015,06,22,11,59,18.70
2015,06,22,12,00,18.70
2015,06,22,12,01,18.70
2015,06,22,12,02,18.70
2015,06,22,12,03,18.70
2015,06,22,12,04,18.70
2015,06,22,12,05,18.70
2015,06,22,12,06,18.70
2015,06,22,12,07,18.70
2015,06,22,12,08,18.80
2015,06,22,12,09,18.80
2015,06,22,12,10,18.80
2015,06,22,12,11,18.80
2015,06,22,12,12,18.80
2015,06,22,12,13,18.80
2015,06,22,12,14,18.80
2015,06,22,12,15,18.80
2015,06,22,12,16,18.80
2015,06,22,12,17,18.80
2015,06,22,12,18,18.80
2015,06,22,12,19,18.80
2015,06,22,12,20,18.80
2015,06,22,12,21,18.80
2015,06,22,12,22,18.80
2015,06,22,12,23,18.90
2015,06,22,12,24,18.90
2015,06,22,12,25,18.90
2015,06,22,12,26,18.90
2015,06,22,12,27,18.90
2015,06,22,12,28,19.00
2015,06,22,12,29,19.00
2015,06,22,12,30,19.00
2015,06,22,12,31,19.00
2015,06,22,12,32,19.00
2015,06,22,12,33,19.00
2015,06,22,12,34,19.00
2015,06,22,12,35,19.00
2015,06,22,12,36,19.10
2015,06,22,12,37,19.10
2015,06,22,12,38,19.10
2015,06,22,12,39,19.10
2015,06,22,12,40,19.10
2015,06,22,12,41,19.10
2015,06,22,12,42,19.20
2015,06,22,12,43,19.10
2015,06,22,12,44,19.10
2015,06,22,12,45,19.20
2015,06,22,12,46,19.20
2015,06,22,12,47,19.20
2015,06,22,12,48,19.20
2015,06,22,12,49,19.30
2015,06,22,12,50,19.30
2015,06,22,12,51,19.30
2015,06,22,12,52,19.40
2015,06,22,12,53,19.40
2015,06,22,12,54,19.50
2015,06,22,12,55,19.50
2015,06,22,12,56,19.50
2015,06,22,12,57,19.60
2015,06,22,12,58,19.60
2015,06,22,12,59,19.50
2015,06,22,13,00,19.50
2015,06,22,13,01,19.50
2015,06,22,13,02,19.60
2015,06,22,13,03,19.60
2015,06,22,13,04,19.60
2015,06,22,13,05,19.60
2015,06,22,13,06,19.70
2015,06,22,13,07,19.70
2015,06,22,13,08,19.70
2015,06,22,13,09,19.60
2015,06,22,13,10,19.60
2015,06,22,13,11,19.50
2015,06,22,13,12,19.60
2015,06,22,13,13,19.50
2015,06,22,13,14,19.50
2015,06,22,13,15,19.50
2015,06,22,13,16,19.40
2015,06,22,13,17,19.50
2015,06,22,13,18,19.50
2015,06,22,13,19,19.40
2015,06,22,13,20,19.40
2015,06,22,13,21,19.40
2015,06,22,13,22,19.40
2015,06,22,13,23,19.40
2015,06,22,13,24,19.40
2015,06,22,13,25,19.40
2015,06,22,13,26,19.40
2015,06,22,13,27,19.40
2015,06,22,13,28,19.50
2015,06,22,13,29,19.50
2015,06,22,13,30,19.50
2015,06,22,13,31,19.60
2015,06,22,13,32,19.60
2015,06,22,13,33,19.70
2015,06,22,13,34,19.70
2015,06,22,13,35,19.80
2015,06,22,13,36,19.70
2015,06,22,13,37,19.80
2015,06,22,13,38,19.80
2015,06,22,13,39,19.80
2015,06,22,13,40,19.80
2015,06,22,13,41,19.80
2015,06,22,13,42,19.90
2015,06,22,13,43,20.00
2015,06,22,13,44,20.00
2015,06,22,13,45,20.10
2015,06,22,13,46,20.20
2015,06,22,13,47,20.10
2015,06,22,13,48,20.10
2015,06,22,13,49,20.00
2015,06,22,13,50,20.00
2015,06,22,13,51,19.90
2015,06,22,13,52,19.90
2015,06,22,13,53,19.90
2015,06,22,13,54,19.90
2015,06,22,13,55,19.80
2015,06,22,13,56,19.80
2015,06,22,13,57,19.70
2015,06,22,13,58,19.70
2015,06,22,13,59,19.70
2015,06,22,14,00,19.70
2015,06,22,14,01,19.70
2015,06,22,14,02,19.70
2015,06,22,14,03,19.70
2015,06,22,14,04,19.70
2015,06,22,14,05,19.70
2015,06,22,14,06,19.70
2015,06,22,14,07,19.70
2015,06,22,14,08,19.70
2015,06,22,14,09,19.60
2015,06,22,14,10,19.60
2015,06,22,14,11,19.60
2015,06,22,14,12,19.60
2015,06,22,14,13,19.70
2015,06,22,14,14,19.70
2015,06,22,14,15,19.70
2015,06,22,14,16,19.60
2015,06,22,14,17,19.60
2015,06,22,14,18,19.60
2015,06,22,14,19,19.60
2015,06,22,14,20,19.70
2015,06,22,14,21,19.80
2015,06,22,14,22,19.80
2015,06,22,14,23,19.80
2015,06,22,14,24,19.80
2015,06,22,14,25,19.80
2015,06,22,14,26,19.80
2015,06,22,14,27,19.80
2015,06,22,14,28,19.80
2015,06,22,14,29,19.90
2015,06,22,14,30,19.90
2015,06,22,14,31,19.90
2015,06,22,14,32,19.90
2015,06,22,14,33,19.80
2015,06,22,14,34,19.80
2015,06,22,14,35,19.70
2015,06,22,14,36,19.70
2015,06,22,14,37,19.70
2015,06,22,14,38,19.70
2015,06,22,14,39,19.70
2015,06,22,14,40,19.70
2015,06,22,14,41,19.70
2015,06,22,14,42,19.70
2015,06,22,14,43,19.70
2015,06,22,14,44,19.70
2015,06,22,14,45,19.70
2015,06,22,14,46,19.80
2015,06,22,14,47,19.80
2015,06,22,14,48,19.80
2015,06,22,14,49,19.80
2015,06,22,14,50,19.80
2015,06,22,14,51,19.80
2015,06,22,14,52,19.80
2015,06,22,14,53,19.80
2015,06,22,14,54,19.80
2015,06,22,14,55,19.70
2015,06,22,14,56,19.70
2015,06,22,14,57,19.80
2015,06,22,14,58,19.80
2015,06,22,14,59,19.80
2015,06,22,15,00,19.80
2015,06,22,15,01,19.90
2015,06,22,15,02,19.90
2015,06,22,15,03,20.00
2015,06,22,15,04,20.00
2015,06,22,15,05,20.10
2015,06,22,15,06,20.10
2015,06,22,15,07,20.20
2015,06,22,15,08,20.20
2015,06,22,15,09,20.20
2015,06,22,15,10,20.20
2015,06,22,15,11,20.20
2015,06,22,15,12,20.20
2015,06,22,15,13,20.20
2015,06,22,15,14,20.20
2015,06,22,15,15,20.30
2015,06,22,15,16,20.30
2015,06,22,15,17,20.40
2015,06,22,15,18,20.40
2015,06,22,15,19,20.40
2015,06,22,15,20,20.40
2015,06,22,15,21,20.40
2015,06,22,15,22,20.40
2015,06,22,15,23,20.30
2015,06,22,15,24,20.30
2015,06,22,15,25,20.30
2015,06,22,15,26,20.30
2015,06,22,15,27,20.20
2015,06,22,15,28,20.20
2015,06,22,15,29,20.10
2015,06,22,15,30,20.10
2015,06,22,15,31,20.10
2015,06,22,15,32,20.10
2015,06,22,15,33,20.00
2015,06,22,15,34,20.00
2015,06,22,15,35,20.00
2015,06,22,15,36,20.00
2015,06,22,15,37,20.00
2015,06,22,15,38,20.10
2015,06,22,15,39,20.20
2015,06,22,15,40,20.30
2015,06,22,15,41,20.40
2015,06,22,15,42,20.50
2015,06,22,15,43,20.50
2015,06,22,15,44,20.60
2015,06,22,15,45,20.60
2015,06,22,15,46,20.70
2015,06,22,15,47,20.70
2015,06,22,15,48,20.80
2015,06,22,15,49,20.80
2015,06,22,15,50,20.80
2015,06,22,15,51,20.80
2015,06,22,15,52,20.80
2015,06,22,15,53,20.80
2015,06,22,15,54,20.80
2015,06,22,15,55,20.90
2015,06,22,15,56,20.90
2015,06,22,15,57,21.00
2015,06,22,15,58,21.00
2015,06,22,15,59,21.10
2015,06,22,16,00,21.10
2015,06,22,16,01,21.10
2015,06,22,16,02,21.10
2015,06,22,16,03,21.20
2015,06,22,16,04,21.20
2015,06,22,16,05,21.20
2015,06,22,16,06,21.20
2015,06,22,16,07,21.20
2015,06,22,16,08,21.20
2015,06,22,16,09,21.20
2015,06,22,16,10,21.20
2015,06,22,16,11,21.20
2015,06,22,16,12,21.30
2015,06,22,16,13,21.30
2015,06,22,16,14,21.40
2015,06,22,16,15,21.30
2015,06,22,16,16,21.30
2015,06,22,16,17,21.30
2015,06,22,16,18,21.30
2015,06,22,16,19,21.30
2015,06,22,16,20,21.30
2015,06,22,16,21,21.30
2015,06,22,16,22,21.30
2015,06,22,16,23,21.40
2015,06,22,16,24,21.40
2015,06,22,16,25,21.50
2015,06,22,16,26,21.50
2015,06,22,16,27,21.60
2015,06,22,16,28,21.60
2015,06,22,16,29,21.60
2015,06,22,16,30,21.60
2015,06,22,16,31,21.60
2015,06,22,16,32,21.60
2015,06,22,16,33,21.60
2015,06,22,16,34,21.70
2015,06,22,16,35,21.70
2015,06,22,16,36,21.70
2015,06,22,16,37,21.70
2015,06,22,16,38,21.70
2015,06,22,16,39,21.70
2015,06,22,16,40,21.80
2015,06,22,16,41,21.90
2015,06,22,16,42,22.00
2015,06,22,16,43,22.10
2015,06,22,16,44,22.10
2015,06,22,16,45,22.20
2015,06,22,16,46,22.20
2015,06,22,16,47,22.20
2015,06,22,16,48,22.30
2015,06,22,16,49,22.30
2015,06,22,16,50,22.30
2015,06,22,16,51,22.30
2015,06,22,16,52,22.30
2015,06,22,16,53,22.30
2015,06,22,16,54,22.40
2015,06,22,16,55,22.40
2015,06,22,16,56,22.40
2015,06,22,16,57,22.40
2015,06,22,16,58,22.40
2015,06,22,16,59,22.40
2015,06,22,17,00,22.30
2015,06,22,17,01,22.30
2015,06,22,17,02,22.20
2015,06,22,17,03,22.20
2015,06,22,17,04,22.20
2015,06,22,17,05,22.20
2015,06,22,17,06,22.20
2015,06,22,17,07,22.20
2015,06,22,17,08,22.20
2015,06,22,17,09,22.20
2015,06,22,17,10,22.30
2015,06,22,17,11,22.30
2015,06,22,17,12,22.20
2015,06,22,17,13,22.20
2015,06,22,17,14,22.10
2015,06,22,17,15,22.00
2015,06,22,17,16,22.00
2015,06,22,17,17,21.90
2015,06,22,17,18,21.80
2015,06,22,17,19,21.80